Tracking 25711 objects as of 23-May-2022
HD Live streaming from Space Station
objects crossing your sky now

COSMOS 1275 DEB

Track COSMOS 1275 DEB now!
10-day predictions


NORAD ID: 12667
Int'l Code: 1981-053X
Perigee: 942.0 km
Apogee: 992.0 km
Inclination: 82.8 °
Period: 104.3 minutes
Semi major axis: 7337 km
RCS: 0.0155 m2 (small)
Launch date: June 4, 1981
Source: Commonwealth of Independent States (former USSR) (CIS)
Launch site: PLESETSK MISSILE AND SPACE COMPLEX (PKMTR)

Note: This is SATELLITE DEBRIS
aabbcc
Your satellite tracking list
Your tracking list is empty




NASA's NSSDC Master Catalog

Two Line Element Set (TLE):
1 12667U 81053X   22142.82236133  .00000677  00000-0  62341-3 0  9997
2 12667  82.8399  69.0417 0034089 297.4153 131.9951 13.81144818 49185
Source of the keplerian elements: AFSPC